Location: Baia Mare
(47.6567°N, 23.5850°E)
Time: 13:56:14
(UTC+03:00)

ISS - Pass Details

Date: 19 July 2019
Orbit: 409 x 418 km, 51.6° (Epoch: 21 July)

Event Time Altitude Azimuth Distance (km) Brightness Sun altitude
Rises 01:41:13 0° 286° (WNW) 2,350 0.2 -21.4°
Reaches altitude 10° 01:43:23 10° 294° (WNW) 1,486 -0.7 -21.4°
Maximum altitude 01:46:35 41° 7° (N) 607 -2.5 -21.3°
Drops below altitude 10° 01:49:45 10° 79° (E) 1,479 -0.8 -21.3°
Sets 01:51:54 0° 87° (E) 2,339 0.1 -21.3°
